Location: Recife
(8.0585°S, 34.8848°W)
Time: 21:29:49
(UTC-03:00)

S-56A Canister/Altair - Pass Details

Date: 21 April 2026
Orbit: 633 x 2484 km, 38.9° (Epoch: 16 May)

Event Time Altitude Azimuth Distance (km) Brightness Sun altitude
Rises 22:20:28 0° 228° (SW) 2,930 - -75.2°
Reaches altitude 10° 22:22:36 10° 227° (SW) 2,062 - -75.7°
Maximum altitude 22:27:12 83° 139° (SE) 752 - -76.8°
Drops below altitude 10° 22:33:11 10° 51° (NE) 2,658 - -78.2°
Sets 22:36:16 0° 51° (NE) 3,863 - -78.9°
